| time (UTC) | temp F | wind direction | speed MPH | gust MPH | rain 1hr in | rain 24hr in | rain mn in | humidity % | barometer mb |
| 20260505171010 | 60 | 277 | 2.0 | 7.0 | 0.00 | 0.00 | 0.00 | 57 | 997.6 |
| 20260505170512 | 61 | 217 | 2.0 | 7.0 | 0.00 | 0.00 | 0.00 | 54 | 997.6 |
| 20260505170012 | 62 | 273 | 2.0 | 8.0 | 0.00 | 0.00 | 0.00 | 53 | 997.6 |
| 20260505165506 | 63 | 345 | 2.0 | 8.0 | 0.00 | 0.00 | 0.00 | 53 | 997.5 |
| 20260505165007 | 62 | 317 | 3.0 | 8.0 | 0.00 | 0.00 | 0.00 | 54 | 997.6 |
| 20260505164517 | 62 | 285 | 3.0 | 8.0 | 0.00 | 0.00 | 0.00 | 54 | 997.7 |
| 20260505164007 | 62 | 347 | 4.0 | 8.0 | 0.00 | 0.00 | 0.00 | 53 | 997.9 |
| 20260505163507 | 62 | 273 | 3.0 | 8.0 | 0.00 | 0.00 | 0.00 | 53 | 997.9 |
| 20260505163027 | 63 | 350 | 3.0 | 7.0 | 0.00 | 0.00 | 0.00 | 54 | 997.8 |
| 20260505162510 | 62 | 287 | 2.0 | 6.0 | 0.00 | 0.00 | 0.00 | 56 | 998.0 |
| 20260505162011 | 61 | 332 | 3.0 | 5.0 | 0.00 | 0.00 | 0.00 | 57 | 997.9 |
| 20260505161526 | 59 | 336 | 3.0 | 4.0 | 0.00 | 0.00 | 0.00 | 59 | 998.2 |
| 20260505161010 | 57 | 322 | 2.0 | 4.0 | 0.00 | 0.00 | 0.00 | 62 | 998.5 |
| 20260505160513 | 56 | 99 | 2.0 | 9.0 | 0.00 | 0.00 | 0.00 | 61 | 998.6 |
| 20260505153021 | 58 | 341 | 5.0 | 10.0 | 0.00 | 0.00 | 0.00 | 998.9 | |
| 20260505152511 | 58 | 323 | 2.0 | 8.0 | 0.00 | 0.00 | 0.00 | 57 | 998.7 |
| 20260505152009 | 58 | 352 | 4.0 | 8.0 | 0.00 | 0.00 | 0.00 | 57 | 998.6 |
| 20260505151532 | 58 | 342 | 1.0 | 10.0 | 0.00 | 0.00 | 0.00 | 58 | 998.7 |
| 20260505151006 | 58 | 279 | 1.0 | 10.0 | 0.00 | 0.00 | 0.00 | 57 | 998.7 |
| 20260505150509 | 59 | 295 | 4.0 | 6.0 | 0.00 | 0.00 | 0.00 | 57 | 998.8 |
| 20260505140510 | 58 | 132 | 5.0 | 10.0 | 0.00 | 0.00 | 0.00 | 57 | 999.9 |
| 20260505125004 | 59 | 163 | 8.0 | 15.0 | 0.00 | 0.00 | 0.00 | 58 | 1000.3 |
| 20260505124512 | 58 | 215 | 8.0 | 15.0 | 0.00 | 0.00 | 0.00 | 58 | 1000.5 |
| 20260505124003 | 58 | 117 | 6.0 | 13.0 | 0.00 | 0.00 | 0.00 | 59 | 1000.5 |
| 20260505123505 | 57 | 156 | 6.0 | 12.0 | 0.00 | 0.00 | 0.00 | 59 | 1000.6 |
| 20260505123014 | 57 | 232 | 6.0 | 14.0 | 0.00 | 0.00 | 0.00 | 60 | 1000.6 |
| 20260505122506 | 56 | 140 | 8.0 | 17.0 | 0.00 | 0.00 | 0.00 | 61 | 1000.6 |
| 20260505122007 | 55 | 139 | 5.0 | 17.0 | 0.00 | 0.00 | 0.00 | 62 | 1000.7 |
| 20260505121520 | 55 | 136 | 7.0 | 16.0 | 0.00 | 0.00 | 0.00 | 62 | 1000.9 |
| 20260505121007 | 55 | 200 | 8.0 | 16.0 | 0.00 | 0.00 | 0.00 | 62 | 1001.0 |
| 20260505120504 | 54 | 188 | 6.0 | 16.0 | 0.00 | 0.00 | 0.00 | 63 | 1001.1 |
| 20260505120010 | 54 | 186 | 5.0 | 15.0 | 0.00 | 0.00 | 0.00 | 63 | 1001.3 |
| 20260505115501 | 53 | 164 | 5.0 | 15.0 | 0.00 | 0.00 | 0.00 | 63 | 1001.5 |
| 20260505115002 | 53 | 190 | 7.0 | 14.0 | 0.00 | 0.00 | 0.00 | 63 | 1001.7 |
| 20260505114508 | 53 | 190 | 7.0 | 14.0 | 0.00 | 0.00 | 0.00 | 64 | 1001.9 |
| 20260505114002 | 53 | 161 | 7.0 | 14.0 | 0.00 | 0.00 | 0.00 | 65 | 1001.8 |
| 20260505113507 | 52 | 152 | 5.0 | 14.0 | 0.00 | 0.00 | 0.00 | 65 | 1001.8 |
| 20260505113019 | 52 | 264 | 7.0 | 15.0 | 0.00 | 0.00 | 0.00 | 65 | 1001.7 |
| 20260505112504 | 52 | 186 | 5.0 | 15.0 | 0.00 | 0.00 | 0.00 | 66 | 1001.8 |
| 20260505112004 | 51 | 163 | 6.0 | 13.0 | 0.00 | 0.00 | 0.00 | 66 | 1001.8 |
| 20260505111535 | 50 | 210 | 6.0 | 13.0 | 0.00 | 0.00 | 0.00 | 67 | 1001.9 |
| 20260505111006 | 50 | 161 | 9.0 | 16.0 | 0.00 | 0.00 | 0.00 | 68 | 1001.9 |
| 20260505110507 | 49 | 200 | 7.0 | 16.0 | 0.00 | 0.00 | 0.00 | 68 | 1002.0 |
| 20260505102004 | 48 | 170 | 8.0 | 15.0 | 0.00 | 0.00 | 0.00 | 68 | 1002.3 |
| 20260505101523 | 47 | 192 | 6.0 | 12.0 | 0.00 | 0.00 | 0.00 | 69 | 1002.4 |
| 20260505101005 | 47 | 196 | 7.0 | 15.0 | 0.00 | 0.00 | 0.00 | 69 | 1002.4 |
| 20260505100505 | 47 | 211 | 6.0 | 16.0 | 0.00 | 0.00 | 0.00 | 70 | 1002.4 |
| 20260505100022 | 46 | 112 | 8.0 | 16.0 | 0.00 | 0.00 | 0.00 | 70 | 1002.6 |
| 20260505095508 | 46 | 154 | 9.0 | 20.0 | 0.00 | 0.00 | 0.00 | 70 | 1002.5 |
| 20260505095010 | 46 | 171 | 10.0 | 20.0 | 0.00 | 0.00 | 0.00 | 71 | 1002.4 |
| 20260505094527 | 46 | 165 | 7.0 | 16.0 | 0.00 | 0.00 | 0.00 | 71 | 1002.1 |
| 20260505094002 | 46 | 198 | 8.0 | 15.0 | 0.00 | 0.00 | 0.00 | 71 | 1002.1 |
| 20260505093501 | 46 | 219 | 5.0 | 16.0 | 0.00 | 0.00 | 0.00 | 72 | 1002.2 |
| 20260505093008 | 45 | 179 | 7.0 | 16.0 | 0.00 | 0.00 | 0.00 | 72 | 1002.2 |
| 20260505092504 | 45 | 174 | 5.0 | 14.0 | 0.00 | 0.00 | 0.00 | 72 | 1002.2 |
| 20260505092004 | 45 | 146 | 6.0 | 16.0 | 0.00 | 0.00 | 0.00 | 71 | 1002.4 |
| 20260505091511 | 45 | 159 | 7.0 | 16.0 | 0.00 | 0.00 | 0.00 | 71 | 1002.4 |
| 20260505091007 | 45 | 161 | 8.0 | 15.0 | 0.00 | 0.00 | 0.00 | 71 | 1002.6 |
| 20260505090504 | 45 | 113 | 4.0 | 19.0 | 0.00 | 0.00 | 0.00 | 71 | 1002.7 |
| 20260505090023 | 45 | 137 | 7.0 | 19.0 | 0.00 | 0.00 | 0.00 | 71 | 1002.7 |
| 20260505085508 | 45 | 164 | 8.0 | 15.0 | 0.00 | 0.00 | 0.00 | 71 | 1002.7 |
| 20260505085006 | 45 | 192 | 6.0 | 15.0 | 0.00 | 0.00 | 0.00 | 71 | 1003.0 |
| 20260505084529 | 45 | 175 | 6.0 | 10.0 | 0.00 | 0.00 | 0.00 | 72 | 1003.1 |
| 20260505084008 | 45 | 219 | 4.0 | 8.0 | 0.00 | 0.00 | 0.00 | 73 | 1003.1 |
| 20260505083507 | 45 | 200 | 2.0 | 8.0 | 0.00 | 0.00 | 0.00 | 73 | 1003.0 |
| 20260505083010 | 44 | 153 | 2.0 | 11.0 | 0.00 | 0.00 | 0.00 | 73 | 1003.1 |
| 20260505082503 | 44 | 189 | 5.0 | 14.0 | 0.00 | 0.00 | 0.00 | 73 | 1003.2 |
| 20260505082003 | 45 | 198 | 6.0 | 14.0 | 0.00 | 0.00 | 0.00 | 72 | 1003.3 |
| 20260505081512 | 45 | 164 | 8.0 | 14.0 | 0.00 | 0.00 | 0.00 | 72 | 1003.3 |
| 20260505081004 | 45 | 192 | 5.0 | 14.0 | 0.00 | 0.00 | 0.00 | 72 | 1003.1 |
| 20260505080510 | 45 | 184 | 6.0 | 14.0 | 0.00 | 0.00 | 0.00 | 73 | 1003.1 |
| 20260505080024 | 44 | 187 | 6.0 | 13.0 | 0.00 | 0.00 | 0.00 | 73 | 1003.1 |
| 20260505075507 | 44 | 185 | 4.0 | 13.0 | 0.00 | 0.00 | 0.00 | 73 | 1003.5 |
| 20260505075007 | 44 | 169 | 5.0 | 12.0 | 0.00 | 0.00 | 0.00 | 73 | 1004.0 |
| 20260505074523 | 44 | 186 | 5.0 | 11.0 | 0.00 | 0.00 | 0.00 | 73 | 1004.2 |
| 20260505074007 | 44 | 188 | 5.0 | 11.0 | 0.00 | 0.00 | 0.00 | 73 | 1004.0 |
| 20260505073509 | 44 | 150 | 7.0 | 12.0 | 0.00 | 0.00 | 0.00 | 73 | 1004.0 |
| 20260505073023 | 45 | 157 | 6.0 | 13.0 | 0.00 | 0.00 | 0.00 | 73 | 1003.9 |
| 20260505072508 | 45 | 196 | 6.0 | 13.0 | 0.00 | 0.00 | 0.00 | 72 | 1003.7 |
| 20260505072007 | 45 | 203 | 6.0 | 11.0 | 0.00 | 0.00 | 0.00 | 72 | 1003.4 |
| 20260505071507 | 45 | 177 | 6.0 | 11.0 | 0.00 | 0.00 | 0.00 | 72 | 1003.1 |
| 20260505071004 | 45 | 186 | 4.0 | 11.0 | 0.00 | 0.00 | 0.00 | 72 | 1003.0 |
| 20260505070504 | 45 | 188 | 6.0 | 12.0 | 0.00 | 0.00 | 0.00 | 72 | 1003.1 |
| 20260505070022 | 45 | 161 | 4.0 | 12.0 | 0.00 | 0.00 | 0.00 | 72 | 1003.1 |
| 20260505065504 | 45 | 178 | 4.0 | 11.0 | 0.00 | 0.00 | 0.00 | 72 | 1003.1 |
| 20260505065006 | 45 | 145 | 5.0 | 9.0 | 0.00 | 0.00 | 0.00 | 72 | 1003.2 |
| 20260505064519 | 45 | 176 | 4.0 | 9.0 | 0.00 | 0.00 | 0.00 | 73 | 1003.4 |
| 20260505064008 | 45 | 166 | 3.0 | 7.0 | 0.00 | 0.00 | 0.00 | 72 | 1003.3 |
| 20260505063507 | 45 | 167 | 2.0 | 10.0 | 0.00 | 0.00 | 0.00 | 72 | 1003.5 |
| 20260505063025 | 45 | 186 | 5.0 | 10.0 | 0.00 | 0.00 | 0.00 | 72 | 1003.6 |
| 20260505062507 | 45 | 168 | 4.0 | 12.0 | 0.00 | 0.00 | 0.00 | 72 | 1003.5 |
| 20260505062010 | 45 | 168 | 5.0 | 12.0 | 0.00 | 0.00 | 0.00 | 72 | 1003.4 |
| 20260505061534 | 45 | 169 | 4.0 | 10.0 | 0.00 | 0.00 | 0.00 | 72 | 1003.5 |
| 20260505061008 | 45 | 186 | 4.0 | 10.0 | 0.00 | 0.00 | 0.00 | 73 | 1003.5 |
| 20260505060511 | 45 | 222 | 6.0 | 10.0 | 0.00 | 0.00 | 0.00 | 72 | 1003.6 |
| 20260505060012 | 45 | 173 | 6.0 | 12.0 | 0.00 | 0.00 | 0.00 | 72 | 1003.7 |
| 20260505055505 | 45 | 144 | 5.0 | 12.0 | 0.00 | 0.00 | 0.00 | 71 | 1003.8 |
| 20260505055007 | 45 | 171 | 5.0 | 11.0 | 0.00 | 0.00 | 0.00 | 71 | 1003.8 |
| 20260505054524 | 45 | 134 | 5.0 | 10.0 | 0.00 | 0.00 | 0.00 | 71 | 1003.8 |
| 20260505054009 | 45 | 191 | 5.0 | 14.0 | 0.00 | 0.00 | 0.00 | 71 | 1003.9 |
| 20260505053507 | 45 | 183 | 5.0 | 14.0 | 0.00 | 0.00 | 0.00 | 70 | 1003.9 |
| 20260505053026 | 45 | 184 | 6.0 | 13.0 | 0.00 | 0.00 | 0.00 | 70 | 1003.9 |
| 20260505052507 | 46 | 177 | 6.0 | 13.0 | 0.00 | 0.00 | 0.00 | 70 | 1003.9 |
| 20260505052011 | 46 | 175 | 5.0 | 10.0 | 0.00 | 0.00 | 0.00 | 69 | 1003.9 |
| 20260505051526 | 46 | 184 | 5.0 | 10.0 | 0.00 | 0.00 | 0.00 | 69 | 1003.9 |
| 20260505051011 | 46 | 185 | 6.0 | 10.0 | 0.00 | 0.00 | 0.00 | 69 | 1003.9 |
| 20260505050514 | 45 | 169 | 4.0 | 9.0 | 0.00 | 0.00 | 0.00 | 69 | 1003.8 |
| 20260505041504 | 45 | 210 | 5.0 | 9.0 | 0.00 | 0.00 | 0.00 | 70 | 1004.1 |
| 20260505041003 | 45 | 184 | 4.0 | 9.0 | 0.00 | 0.00 | 0.00 | 70 | 1004.0 |
| 20260505040504 | 45 | 184 | 4.0 | 9.0 | 0.00 | 0.00 | 0.00 | 70 | 1003.9 |
| 20260505040011 | 45 | 175 | 4.0 | 8.0 | 0.00 | 0.00 | 0.00 | 70 | 1003.9 |
| 20260505035508 | 45 | 180 | 3.0 | 9.0 | 0.00 | 0.00 | 0.00 | 69 | 1004.0 |
| 20260505035004 | 45 | 191 | 4.0 | 9.0 | 0.00 | 0.00 | 0.00 | 69 | 1003.8 |
| 20260505034504 | 45 | 218 | 2.0 | 5.0 | 0.00 | 0.00 | 0.00 | 69 | 1003.8 |
| 20260505034003 | 45 | 165 | 2.0 | 6.0 | 0.00 | 0.00 | 0.00 | 69 | 1003.7 |
| 20260505033504 | 45 | 229 | 1.0 | 6.0 | 0.00 | 0.00 | 0.00 | 68 | 1003.6 |
| 20260505033011 | 45 | 174 | 3.0 | 8.0 | 0.00 | 0.00 | 0.00 | 68 | 1003.7 |
| 20260505032502 | 45 | 150 | 1.0 | 8.0 | 0.00 | 0.00 | 0.00 | 68 | 1003.7 |
| 20260505032003 | 46 | 168 | 1.0 | 5.0 | 0.00 | 0.00 | 0.00 | 68 | 1003.6 |
| 20260505031502 | 46 | 186 | 2.0 | 7.0 | 0.00 | 0.00 | 0.00 | 68 | 1003.6 |
| 20260505031002 | 46 | 180 | 2.0 | 7.0 | 0.00 | 0.00 | 0.00 | 67 | 1003.6 |
| 20260505030503 | 46 | 156 | 3.0 | 5.0 | 0.00 | 0.00 | 0.00 | 67 | 1003.7 |
| 20260505030013 | 46 | 203 | 1.0 | 5.0 | 0.00 | 0.00 | 0.00 | 67 | 1003.6 |
| 20260505025504 | 46 | 175 | 2.0 | 8.0 | 0.00 | 0.00 | 0.00 | 67 | 1003.6 |
| 20260505025002 | 46 | 163 | 1.0 | 8.0 | 0.00 | 0.00 | 0.00 | 67 | 1003.5 |
| 20260505024505 | 46 | 165 | 2.0 | 8.0 | 0.00 | 0.00 | 0.00 | 67 | 1003.4 |
| 20260505024002 | 46 | 199 | 3.0 | 8.0 | 0.00 | 0.00 | 0.00 | 67 | 1003.5 |
| 20260505023502 | 46 | 183 | 3.0 | 8.0 | 0.00 | 0.00 | 0.00 | 67 | 1003.5 |
| 20260505023007 | 46 | 167 | 3.0 | 8.0 | 0.00 | 0.00 | 0.00 | 67 | 1003.6 |
| 20260505022501 | 46 | 155 | 2.0 | 7.0 | 0.00 | 0.00 | 0.00 | 67 | 1003.6 |
| 20260505022001 | 46 | 167 | 4.0 | 6.0 | 0.00 | 0.00 | 0.00 | 67 | 1003.6 |
| 20260505021506 | 46 | 173 | 2.0 | 5.0 | 0.00 | 0.00 | 0.00 | 67 | 1003.6 |
| 20260505021001 | 47 | 169 | 2.0 | 6.0 | 0.00 | 0.00 | 0.00 | 67 | 1003.6 |
| 20260505020502 | 47 | 169 | 2.0 | 6.0 | 0.00 | 0.00 | 0.00 | 66 | 1003.6 |
| 20260505020007 | 46 | 198 | 0.0 | 3.0 | 0.00 | 0.00 | 0.00 | 66 | 1003.5 |
| 20260505015501 | 46 | 175 | 1.0 | 4.0 | 0.00 | 0.00 | 0.00 | 66 | 1003.6 |
| 20260505015006 | 45 | 198 | 2.0 | 4.0 | 0.00 | 0.00 | 0.00 | 67 | 1003.5 |
| 20260505014504 | 45 | 184 | 0.0 | 2.0 | 0.00 | 0.00 | 0.00 | 66 | 1003.5 |
| 20260505014004 | 45 | 198 | 0.0 | 2.0 | 0.00 | 0.00 | 0.00 | 65 | 1003.5 |
| 20260505013503 | 45 | 186 | 0.0 | 2.0 | 0.00 | 0.00 | 0.00 | 64 | 1003.6 |
| 20260505013004 | 46 | 186 | 0.0 | 2.0 | 0.00 | 0.00 | 0.00 | 63 | 1003.5 |
| 20260505012504 | 46 | 186 | 0.0 | 2.0 | 0.00 | 0.00 | 0.00 | 61 | 1003.5 |
| 20260505012001 | 46 | 186 | 0.0 | 2.0 | 0.00 | 0.00 | 0.00 | 61 | 1003.4 |
| 20260505011506 | 47 | 186 | 0.0 | 3.0 | 0.00 | 0.00 | 0.00 | 60 | 1003.4 |
| 20260505011001 | 47 | 225 | 0.0 | 3.0 | 0.00 | 0.00 | 0.00 | 60 | 1003.5 |
| 20260505010502 | 47 | 189 | 0.0 | 2.0 | 0.00 | 0.00 | 0.00 | 59 | 1003.4 |
| 20260505010005 | 48 | 191 | 0.0 | 2.0 | 0.00 | 0.00 | 0.00 | 59 | 1003.4 |
| 20260505005501 | 48 | 198 | 0.0 | 4.0 | 0.00 | 0.00 | 0.00 | 59 | 1003.2 |
| 20260505005001 | 48 | 169 | 2.0 | 6.0 | 0.00 | 0.00 | 0.00 | 59 | 1003.2 |
| 20260505004507 | 48 | 218 | 3.0 | 6.0 | 0.00 | 0.00 | 0.00 | 60 | 1003.2 |
| 20260505004000 | 48 | 231 | 3.0 | 6.0 | 0.00 | 0.00 | 0.00 | 60 | 1003.1 |
| 20260505003507 | 48 | 266 | 1.0 | 5.0 | 0.00 | 0.00 | 0.00 | 62 | 1003.0 |
| 20260505003008 | 47 | 254 | 1.0 | 5.0 | 0.00 | 0.00 | 0.00 | 63 | 1003.0 |
| 20260505002503 | 47 | 240 | 2.0 | 3.0 | 0.00 | 0.00 | 0.00 | 65 | 1002.9 |
| 20260505002004 | 47 | 263 | 0.0 | 2.0 | 0.00 | 0.00 | 0.00 | 66 | 1002.9 |
| 20260505001508 | 48 | 263 | 0.0 | 2.0 | 0.00 | 0.00 | 0.00 | 67 | 1002.8 |
| 20260505001003 | 48 | 263 | 0.0 | 2.0 | 0.00 | 0.00 | 0.00 | 65 | 1002.7 |
| 20260505000503 | 49 | 263 | 0.0 | 2.0 | 0.00 | 0.00 | 0.00 | 65 | 1002.7 |
| 20260505000007 | 49 | 263 | 0.0 | 2.0 | 0.00 | 0.00 | 0.00 | 63 | 1002.6 |
| 20260504235501 | 50 | 263 | 0.0 | 3.0 | 0.00 | 0.00 | 0.00 | 61 | 1002.6 |
| 20260504235004 | 50 | 248 | 1.0 | 5.0 | 0.00 | 0.00 | 0.00 | 59 | 1002.5 |
| 20260504234505 | 50 | 227 | 3.0 | 5.0 | 0.00 | 0.00 | 0.00 | 58 | 1002.5 |
| 20260504234000 | 50 | 224 | 2.0 | 5.0 | 0.00 | 0.00 | 0.00 | 58 | 1002.3 |
| 20260504233501 | 50 | 236 | 1.0 | 3.0 | 0.00 | 0.00 | 0.00 | 60 | 1002.3 |
| 20260504233008 | 50 | 267 | 1.0 | 4.0 | 0.00 | 0.00 | 0.00 | 61 | 1002.3 |
| 20260504232505 | 50 | 267 | 2.0 | 4.0 | 0.00 | 0.00 | 0.00 | 61 | 1002.1 |
| 20260504232003 | 51 | 277 | 2.0 | 6.0 | 0.00 | 0.00 | 0.00 | 61 | 1002.1 |
| 20260504231509 | 51 | 266 | 3.0 | 9.0 | 0.00 | 0.00 | 0.00 | 59 | 1001.9 |
| 20260504231006 | 51 | 278 | 3.0 | 9.0 | 0.00 | 0.00 | 0.00 | 56 | 1001.9 |
| 20260504230503 | 51 | 241 | 4.0 | 7.0 | 0.00 | 0.00 | 0.00 | 56 | 1001.9 |
| 20260504230010 | 51 | 255 | 2.0 | 7.0 | 0.00 | 0.00 | 0.00 | 59 | 1001.8 |
| 20260504225503 | 51 | 284 | 3.0 | 7.0 | 0.00 | 0.00 | 0.00 | 59 | 1001.7 |
| 20260504225003 | 52 | 261 | 5.0 | 8.0 | 0.00 | 0.00 | 0.00 | 57 | 1001.8 |
| 20260504224509 | 52 | 286 | 3.0 | 8.0 | 0.00 | 0.00 | 0.00 | 55 | 1001.7 |
| 20260504224004 | 52 | 254 | 4.0 | 9.0 | 0.00 | 0.00 | 0.00 | 54 | 1001.7 |
| 20260504223504 | 52 | 285 | 3.0 | 9.0 | 0.00 | 0.00 | 0.00 | 57 | 1001.7 |
| 20260504223005 | 52 | 248 | 4.0 | 12.0 | 0.00 | 0.00 | 0.00 | 55 | 1001.7 |
| 20260504222504 | 52 | 259 | 4.0 | 12.0 | 0.00 | 0.00 | 0.00 | 54 | 1001.7 |
| 20260504222003 | 53 | 266 | 5.0 | 12.0 | 0.00 | 0.00 | 0.00 | 51 | 1001.7 |
| 20260504221509 | 53 | 249 | 5.0 | 11.0 | 0.00 | 0.00 | 0.00 | 51 | 1001.7 |
| 20260504221004 | 52 | 266 | 6.0 | 12.0 | 0.00 | 0.00 | 0.00 | 51 | 1001.7 |
| 20260504220504 | 52 | 236 | 6.0 | 13.0 | 0.00 | 0.00 | 0.00 | 54 | 1001.7 |
| 20260504220028 | 52 | 246 | 6.0 | 13.0 | 0.00 | 0.00 | 0.00 | 55 | 1001.7 |
| 20260504215506 | 52 | 213 | 6.0 | 12.0 | 0.00 | 0.00 | 0.00 | 56 | 1001.6 |
| 20260504215008 | 52 | 285 | 6.0 | 13.0 | 0.00 | 0.00 | 0.00 | 57 | 1001.6 |
| 20260504214511 | 52 | 253 | 6.0 | 13.0 | 0.00 | 0.00 | 0.00 | 55 | 1001.5 |
| 20260504214004 | 53 | 268 | 5.0 | 13.0 | 0.00 | 0.00 | 0.00 | 53 | 1001.5 |
| 20260504213505 | 53 | 235 | 7.0 | 13.0 | 0.00 | 0.00 | 0.00 | 50 | 1001.5 |
| 20260504213011 | 54 | 292 | 7.0 | 13.0 | 0.00 | 0.00 | 0.00 | 48 | 1001.5 |
| 20260504212505 | 54 | 258 | 8.0 | 13.0 | 0.00 | 0.00 | 0.00 | 47 | 1001.5 |
| 20260504212007 | 53 | 263 | 7.0 | 14.0 | 0.00 | 0.00 | 0.00 | 49 | 1001.5 |
| 20260504211508 | 53 | 259 | 7.0 | 14.0 | 0.00 | 0.00 | 0.00 | 48 | 1001.4 |
| 20260504211004 | 55 | 269 | 6.0 | 12.0 | 0.00 | 0.00 | 0.00 | 43 | 1001.3 |
| 20260504210504 | 55 | 213 | 7.0 | 15.0 | 0.00 | 0.00 | 0.00 | 39 | 1001.2 |
| 20260504210012 | 55 | 246 | 8.0 | 15.0 | 0.00 | 0.00 | 0.00 | 38 | 1001.2 |
| 20260504205504 | 55 | 290 | 7.0 | 14.0 | 0.00 | 0.00 | 0.00 | 41 | 1001.2 |
| 20260504205004 | 55 | 238 | 10.0 | 18.0 | 0.00 | 0.00 | 0.00 | 39 | 1001.2 |
| 20260504204514 | 55 | 277 | 9.0 | 18.0 | 0.00 | 0.00 | 0.00 | 39 | 1001.2 |
| 20260504204004 | 55 | 273 | 9.0 | 18.0 | 0.00 | 0.00 | 0.00 | 37 | 1001.2 |
| 20260504203504 | 55 | 269 | 9.0 | 16.0 | 0.00 | 0.00 | 0.00 | 41 | 1001.2 |
| 20260504203012 | 54 | 273 | 8.0 | 14.0 | 0.00 | 0.00 | 0.00 | 44 | 1001.1 |
| 20260504202505 | 54 | 227 | 8.0 | 13.0 | 0.00 | 0.00 | 0.00 | 44 | 1001.2 |
| 20260504202004 | 55 | 299 | 7.0 | 14.0 | 0.00 | 0.00 | 0.00 | 39 | 1001.1 |
| 20260504201512 | 56 | 246 | 8.0 | 14.0 | 0.00 | 0.00 | 0.00 | 34 | 1001.1 |
| 20260504201004 | 56 | 246 | 7.0 | 15.0 | 0.00 | 0.00 | 0.00 | 35 | 1001.0 |
| 20260504200504 | 55 | 234 | 8.0 | 16.0 | 0.00 | 0.00 | 0.00 | 35 | 1001.0 |
| 20260504200010 | 55 | 275 | 8.0 | 16.0 | 0.00 | 0.00 | 0.00 | 37 | 1000.9 |
| 20260504195504 | 55 | 254 | 9.0 | 16.0 | 0.00 | 0.00 | 0.00 | 39 | 1001.0 |
| 20260504195004 | 54 | 230 | 6.0 | 16.0 | 0.00 | 0.00 | 0.00 | 40 | 1001.0 |
| 20260504194515 | 54 | 264 | 9.0 | 16.0 | 0.00 | 0.00 | 0.00 | 41 | 1001.0 |
| 20260504194008 | 55 | 290 | 10.0 | 16.0 | 0.00 | 0.00 | 0.00 | 38 | 1001.0 |
| 20260504193505 | 55 | 283 | 8.0 | 16.0 | 0.00 | 0.00 | 0.00 | 36 | 1000.9 |
| 20260504193015 | 55 | 270 | 7.0 | 16.0 | 0.00 | 0.00 | 0.00 | 36 | 1000.9 |
| 20260504192506 | 55 | 271 | 6.0 | 15.0 | 0.00 | 0.00 | 0.00 | 38 | 1001.0 |
| 20260504192008 | 55 | 240 | 6.0 | 15.0 | 0.00 | 0.00 | 0.00 | 37 | 1000.9 |
| 20260504191515 | 55 | 274 | 5.0 | 15.0 | 0.00 | 0.00 | 0.00 | 36 | 1000.9 |
| 20260504191005 | 55 | 254 | 5.0 | 15.0 | 0.00 | 0.00 | 0.00 | 38 | 1000.9 |
| 20260504190504 | 55 | 329 | 8.0 | 15.0 | 0.00 | 0.00 | 0.00 | 35 | 1001.0 |
| 20260504190012 | 55 | 199 | 9.0 | 15.0 | 0.00 | 0.00 | 0.00 | 34 | 1001.0 |
| 20260504185505 | 54 | 250 | 9.0 | 15.0 | 0.00 | 0.00 | 0.00 | 35 | 1001.0 |
| 20260504185007 | 54 | 262 | 6.0 | 17.0 | 0.00 | 0.00 | 0.00 | 37 | 1001.2 |
| 20260504184516 | 54 | 245 | 10.0 | 17.0 | 0.00 | 0.00 | 0.00 | 36 | 1001.1 |
| 20260504184006 | 55 | 225 | 8.0 | 14.0 | 0.00 | 0.00 | 0.00 | 36 | 1001.1 |
| 20260504183506 | 55 | 236 | 5.0 | 14.0 | 0.00 | 0.00 | 0.00 | 35 | 1001.2 |
| 20260504183015 | 54 | 241 | 7.0 | 15.0 | 0.00 | 0.00 | 0.00 | 34 | 1001.2 |
| 20260504182503 | 55 | 252 | 7.0 | 15.0 | 0.00 | 0.00 | 0.00 | 33 | 1001.1 |
| 20260504182005 | 54 | 245 | 8.0 | 16.0 | 0.00 | 0.00 | 0.00 | 32 | 1001.2 |
| 20260504181504 | 54 | 232 | 8.0 | 16.0 | 0.00 | 0.00 | 0.00 | 33 | 1001.2 |
| 20260504181004 | 55 | 267 | 5.0 | 13.0 | 0.00 | 0.00 | 0.00 | 35 | 1001.2 |
| 20260504180504 | 55 | 215 | 7.0 | 12.0 | 0.00 | 0.00 | 0.00 | 33 | 1001.2 |
| 20260504180010 | 54 | 238 | 7.0 | 13.0 | 0.00 | 0.00 | 0.00 | 33 | 1001.1 |
| 20260504175504 | 54 | 250 | 7.0 | 14.0 | 0.00 | 0.00 | 0.00 | 35 | 1001.3 |
| 20260504175006 | 54 | 233 | 7.0 | 14.0 | 0.00 | 0.00 | 0.00 | 34 | 1001.4 |
| 20260504174515 | 54 | 271 | 7.0 | 14.0 | 0.00 | 0.00 | 0.00 | 34 | 1001.4 |
| 20260504174004 | 54 | 278 | 7.0 | 14.0 | 0.00 | 0.00 | 0.00 | 36 | 1001.4 |
| 20260504173504 | 53 | 332 | 5.0 | 13.0 | 0.00 | 0.00 | 0.00 | 36 | 1001.5 |
| 20260504173016 | 53 | 182 | 5.0 | 13.0 | 0.00 | 0.00 | 0.00 | 38 | 1001.5 |
| 20260504172507 | 52 | 278 | 7.0 | 13.0 | 0.00 | 0.00 | 0.00 | 35 | 1001.6 |
| 20260504172010 | 52 | 232 | 8.0 | 13.0 | 0.00 | 0.00 | 0.00 | 38 | 1001.6 |
| 20260504171515 | 52 | 317 | 4.0 | 14.0 | 0.00 | 0.00 | 0.00 | 39 | 1001.7 |